Lid_Strength_Index
2 2 2 2 2 2 3 3 3 3 3 2 1 2 1 2 2 2 3 3 3 3 3 3 3 3 3 2 2 2 4 4 5 4 3 2 2 2 0 1 1 1 2
2 2 2 2 2 2 3 3 3 3 1 1 1 1 2 2 2 3 3 2 3 3 3 3 3 2 2 2 2 3 4 4 4 5 4 2 2 1 1 1 1 0 1
2 3 3 2 2 2 3 3 2 1 2 1 1 2 2 2 2 2 2 2 3 3 3 2 2 2 3 2 3 3 3 3 3 3 3 2 1 2 2 1 1 2 1
3 3 3 3 3 3 3 2 2 2 2 2 2 2 2 2 1 2 2 2 3 3 3 3 3 2 2 2 3 3 3 3 2 3 3 3 3 2 2 2 3 3 3
3 3 4 4 4 3 3 2 2 2 2 3 3 2 2 1 1 1 2 3 3 4 3 3 2 1 1 2 2 3 3 2 3 3 3 3 3 3 3 3 3 3 3
3 3 3 3 3 3 3 3 3 3 3 2 3 3 3 3 9 7 4 3 4 3 3 2 1 2 3 4 4 4 3 2 3 3 3 4 3 4 3 2 2 3 4
3 3 3 3 3 3 3 3 3 3 3 3 3 3 3 5 10 8 5 3 3 3 3 3 2 1 2 3 6 5 6 6 4 2 3 3 3 3 3 3 2 3 3
3 3 3 2 2 3 3 3 3 2 2 2 2 3 4 6 10 8 6 2 2 2 2 2 2 2 3 2 2 3 3 3 3 3 3 3 3 2 2 2 2 3 3
3 3 3 2 3 3 3 3 2 2 2 2 3 4 5 5 9 8 5 3 3 3 3 2 2 3 9 8 2 3 4 4 6 6 6 7 7 6 4 3 3 3 4
4 3 3 3 2 3 2 2 2 2 3 3 4 4 6 4 10 9 5 3 3 3 3 4 7 5 10 9 3 3 4 4 4 3 4 6 5 5 6 2 3 3 4
3 3 3 2 2 2 2 2 2 2 3 3 4 4 4 4 6 9 7 2 2 3 3 4 6 9 11 9 6 2 3 3 4 3 3 3 3 3 2 2 2 2 4
2 2 2 2 2 2 2 2 2 3 3 4 3 3 3 4 8 9 8 6 5 3 3 4 6 11 11 9 6 10 9 5 2 2 3 3 3 2 3 3 3 3 2
3 3 2 2 2 2 2 3 3 3 3 3 3 4 3 4 6 10 9 9 7 3 3 8 12 12 12 10 11 10 7 2 2 3 3 3 3 2 2 3 3 3 3
3 3 3 3 3 3 2 2 3 3 3 3 4 4 3 4 6 5 6 6 8 7 8 7 8 8 8 8 5 4 2 2 2 3 3 3 3 3 3 3 3 3 4
3 3 3 3 3 5 7 6 3 4 3 3 4 3 4 5 5 6 6 4 4 6 5 3 3 3 4 3 3 3 3 3 3 3 3 4 4 4 3 3 3 4 4
3 3 3 4 4 5 6 7 13 12 11 9 8 5 4 8 10 11 11 11 11 9 4 3 3 3 3 3 3 3 3 4 3 3 3 3 4 4 4 3 3 4 5
3 3 3 4 4 5 5 5 7 10 13 13 11 11 9 10 11 12 12 11 12 7 4 4 4 3 3 3 3 3 3 3 2 3 3 3 3 4 5 3 3 3 5
3 5 3 3 4 4 4 4 4 4 5 7 11 11 12 12 12 12 12 8 4 5 4 4 3 3 3 4 4 3 3 3 4 4 3 3 3 3 4 3 3 3 3
3 3 2 2 3 4 4 4 4 4 5 7 7 9 12 13 13 13 12 3 3 4 4 4 4 3 4 4 4 4 4 4 4 4 3 3 3 3 3 3 2 7 6
3 7 4 2 3 3 3 4 4 5 4 4 5 6 8 7 6 5 5 3 2 3 3 3 3 3 4 4 4 3 3 4 3 3 3 2 2 2 3 3 3 4 4
3 4 7 2 3 3 3 4 4 4 4 3 4 5 11 5 6 6 4 2 2 2 2 2 3 3 3 2 2 2 2 3 2 2 2 2 2 3 3 3 3 3 3
2 3 3 3 2 3 3 3 3 3 4 3 4 8 14 4 4 3 3 5 5 4 2 3 6 7 6 6 5 2 1 1 2 2 1 1 2 2 2 3 3 3 3
3 3 3 3 2 5 3 2 3 3 3 3 3 4 4 3 3 5 7 8 9 9 9 9 9 10 10 10 10 10 7 7 7 6 4 3 2 2 2 2 2 2 3
2 3 4 4 3 3 3 3 3 5 3 3 2 3 5 6 7 9 10 10 11 11 12 12 12 12 12 12 12 12 11 11 9 5 3 4 4 5 4 4 5 5 5
3 4 5 5 5 4 3 3 3 2 2 4 4 6 7 9 11 11 12 12 13 13 13 13 13 13 13 12 13 13 15 15 12 12 7 7 6 7 6 6 7 7 7
7 7 8 8 8 8 7 7 7 8 8 9 10 10 10 10 11 11 12 13 13 13 14 14 14 14 14 14 15 15 15 15 13 15 10 10 10 10 9 9 8 9 9